www.pogodaiklimat.ru

Погода и климат >> Архив погоды >> Франция >> Кан


ПОГОДА в Кане

  • Прогноз погоды в Кане
  • Монитор погоды в Кане

АРХИВ ПОГОДЫ в Кане

Время (UTC), дата Ветер
(напр.,м/с)
 
Видим.   Явления Облачность Т
(С)
Тd
(С)
f
(%)
Тe
(С)
Тes
(С)
Комфортность P
(гПа)
Po
(гПа)
Тmin
(С)
Tmax
(С)
R
(мм)
R24
(мм)
S
(см)
13 18.08 З 4 30 км 8/8 1230 м
[]
+20.2 +11.7 58 +22 +24 комфорт 1010.2 1002.4
14 18.08 З 5 60 км н/о +21.1 +10.6 51 +23 +23 комфорт 1010.7 1002.9
15 18.08 З 9
{13}
55 км н/о +20.2 +9.4 50 +21 +21 комфорт 1011.2 1003.4 0
16 18.08 З 4 50 км н/о +20.6 +10.1 51 +22 +22 комфорт 1011.6 1003.8
17 18.08 З 4 60 км н/о +19.3 +10.3 56 +20 +20 1011.9 1004.1
18 18.08 З 7
{11}
60 км н/о +18.6 +9.9 57 +18 +18 1012.2 1004.3 +13.8 +21.9 0
19 18.08 З 3 55 км н/о +16.4 +9.6 64 +16 +16 1012.7 1004.8
20 18.08 З 2 45 км н/о +14.7 +10.3 75 +15 +15 1013.6 1005.6
21 18.08 З 4
{6}
40 км н/о +14.0 +11.3 84 +12 +12 1014.1 1006.1 0
22 18.08 ЮЗ 2 30 км н/о +14.1 +12.0 87 +14 +14 1014.5 1006.5
23 18.08 ЮЗ 2 30 км н/о +13.0 +11.6 91 +12 +12 1014.8 1006.8
00 19.08 ЮЗ 5
{8}
35 км н/о +13.8 +11.3 85 +12 +12 1015.1 1007.1 0
01 19.08 ЮЗ 2 30 км 8/3 1440 м
[]
+12.9 +11.3 90 +12 +12 1015.5 1007.5
02 19.08 ЮЗ 2 40 км н/о +12.4 +10.8 90 +11 +11 1015.8 1007.7
03 19.08 ЮЗ 3
{6}
35 км 8/8 600 м
[]
+12.5 +11.2 92 +11 +11 1016.0 1007.9 0
04 19.08 ЮЗ 3 28 км н/о +12.2 +11.4 95 +11 +11 1016.1 1008.0
05 19.08 ЮЗ 3 24 км н/о +12.2 +11.4 95 +11 +11 1016.4 1008.3
06 19.08 ЮЗ 6
{8}
19 км н/о +13.2 +12.3 94 +11 +11 1016.9 1008.9 +11.9 +18.5 0
07 19.08 ЮЗ 3 18 км н/о +14.7 +12.9 89 +14 +14 1017.2 1009.2
08 19.08 ЮЗ 4 18 км н/о +16.9 +12.8 77 +17 +17 1017.4 1009.5
09 19.08 З 6
{11}
8000 м дождь 10/10 600 м
[]
+15.8 +13.1 84 +14 +14 1018.3 1010.3 0.2 0
10 19.08 З 2 60 км н/о +17.7 +14.4 81 +18 +18 1018.4 1010.5 3
11 19.08 ЮЗ 4 19 км 8/6 1000 м
[]
+19.9 +12.2 61 +22 +24 комфорт 1018.5 1010.6
12 19.08 З 8
{13}
50 км н/о +21.2 +10.9 52 +23 +23 комфорт 1018.7 1010.9 3 0
13 19.08 З 4 55 км 10/4 1440 м
[]
+20.1 +11.6 58 +22 +25 комфорт 1019.3 1011.4
14 19.08 З 4 45 км 8/8 2000 м
[]
+21.6 +10.1 48 +23 +25 комфорт 1019.2 1011.4
15 19.08 З 6
{12}
40 км н/о +21.6 +9.5 46 +23 +23 комфорт 1019.3 1011.5 0
16 19.08 З 4 45 км н/о +21.0 +10.2 50 +23 +23 комфорт 1019.8 1011.9
17 19.08 З 3 55 км н/о +20.1 +9.3 50 +22 +22 комфорт 1020.0 1012.1
18 19.08 З 6
{9}
60 км н/о +18.6 +9.1 54 +18 +18 1020.3 1012.4 +13.2 +21.7 0
19 19.08 З 2 60 км н/о +16.5 +8.9 61 +17 +17 1020.8 1012.8
20 19.08 З 2 60 км н/о +13.9 +9.3 74 +14 +14 1021.5 1013.4
21 19.08 З 3
{4}
60 км н/о +12.7 +9.3 80 +11 +11 1022.0 1013.9 0
22 19.08 ЮЗ 2 60 км н/о +12.8 +10.5 86 +12 +12 1022.3 1014.2
23 19.08 З 2 45 км н/о +12.3 +10.7 90 +12 +12 1022.4 1014.3
00 20.08 З 4
{5}
45 км 9/0 2000 м
[]
+12.3 +11.0 92 +10 +10 1022.6 1014.5 0
01 20.08 З 2 45 км н/о +12.2 +10.8 91 +11 +11 1022.6 1014.5
02 20.08 ЮЗ 2 40 км н/о +12.3 +10.9 91 +12 +12 1022.4 1014.3
03 20.08 ЮЗ 3
{5}
50 км н/о +10.6 +10.0 96 +8 +8 1022.5 1014.3 0
04 20.08 ЮЗ 2 29 км н/о +10.6 +10.1 97 +9 +9 1022.8 1014.6
05 20.08 ЮЗ 2 28 км н/о +10.5 +10.0 97 +9 +9 1023.4 1015.2
06 20.08 ЮЗ 4
{5}
30 км н/о +12.0 +11.4 96 +10 +10 1023.9 1015.8 +9.9 +18.6 0
07 20.08 З 2 40 км н/о +14.8 +12.8 88 +15 +15 1024.5 1016.4
08 20.08 З 2 40 км н/о +16.7 +12.4 76 +17 +17 1024.7 1016.7
09 20.08 СЗ 5
{8}
50 км н/о +18.1 +11.9 67 +18 +18 1025.1 1017.1 0
10 20.08 З 2 18 км н/о +19.7 +11.5 59 +22 +22 комфорт 1025.2 1017.3
11 20.08 З 3 55 км н/о +20.0 +9.0 49 +22 +22 комфорт 1025.3 1017.4
12 20.08 СЗ 3
{10}
40 км н/о +20.4 +9.3 49 +22 +22 комфорт 1025.3 1017.4 0
13 20.08 С 2 17 км 10/1 1300 м
[]
+19.8 +9.7 52 +22 +28 комфорт 1025.5 1017.6
14 20.08 С 2 60 км н/о +20.5 +10.6 53 +23 +23 комфорт 1025.7 1017.8
15 20.08 С 5
{9}
19 км н/о +20.0 +11.2 57 +21 +21 комфорт 1026.1 1018.2 0
16 20.08 С 4
{9}
45 км н/о +19.8 +11.3 58 +21 +21 комфорт 1026.3 1018.4
17 20.08 С 4
{8}
40 км н/о +18.5 +10.8 61 +19 +19 1026.7 1018.7
18 20.08 С 4
{8}
19 км н/о +17.4 +11.0 66 +17 +17 1027.2 1019.2 +12.1 +20.9 0
19 20.08 С 1 45 км н/о +16.1 +11.5 74 +17 +17 1027.7 1019.7
20 20.08 В 1 45 км н/о +14.2 +11.4 83 +15 +15 1028.2 1020.1
21 20.08 штиль 0
{2}
40 км 9/9 600 м
[]
+14.1 +11.8 86 +14 +14 1028.5 1020.4 0
22 20.08 ЮЗ 1 35 км н/о +12.4 +10.6 89 +12 +12 1028.7 1020.5
23 20.08 З 1 30 км 10/10 750 м
[]
+11.1 +10.3 95 +11 +11 1028.6 1020.4
00 21.08 З 1
{2}
24 км н/о +10.8 +10.0 95 +10 +10 1028.6 1020.4 0
01 21.08 ЮЗ 1 24 км н/о +9.9 +9.3 96 +10 +10 1028.4 1020.2
02 21.08 З 1 19 км н/о +9.5 +9.0 97 +10 +10 1028.4 1020.2
03 21.08 ЮЗ 2
{3}
25 км н/о +8.8 +8.3 97 +7 +7 1028.5 1020.2 0
04 21.08 Ю 1 26 км н/о +8.4 +7.8 96 +8 +8 1028.6 1020.3
05 21.08 ЮЗ 1 28 км н/о +8.5 +8.2 98 +8 +8 1028.7 1020.4
06 21.08 ЮЗ 1
{3}
27 км н/о +10.0 +9.8 99 +10 +10 1028.8 1020.6 +8.0 +17.4 0.2 0
07 21.08 ЮВ 1 19 км н/о +12.2 +11.1 93 +12 +12 1029.1 1020.9
08 21.08 ЮВ 1 35 км н/о +13.8 +12.2 90 +15 +15 1029.0 1020.9
09 21.08 ЮВ 3
{4}
12 км н/о +17.0 +11.5 70 +17 +17 1028.7 1020.7 0
10 21.08 В 2 15 км н/о +18.6 +9.4 55 +20 +20 1028.3 1020.3
11 21.08 ЮВ 1 12 км н/о +20.0 +9.0 49 +22 +22 комфорт 1027.8 1019.9
12 21.08 ЮВ 2
{6}
60 км н/о +21.4 +9.3 46 +23 +23 комфорт 1027.1 1019.2 0
13 21.08 В 1 19 км 9/9 1500 м
[]
+21.6 +9.2 45 +23 +24 комфорт 1026.6 1018.7
14 21.08 С 2 60 км 9/9 1500 м
[]
+22.7 +12.0 51 +25 +26 комфорт 1026.4 1018.5
15 21.08 С 5
{9}
28 км н/о +20.9 +11.2 54 +23 +23 комфорт 1026.3 1018.4 0
16 21.08 С 5
{9}
35 км н/о +20.4 +10.8 54 +22 +22 комфорт 1026.4 1018.5
17 21.08 С 2 45 км н/о +19.9 +9.7 52 +22 +22 комфорт 1026.1 1018.2
18 21.08 С 3
{6}
60 км н/о +19.1 +10.9 59 +20 +20 1026.1 1018.1 +10.0 +22.8 0
19 21.08 С 1 55 км н/о +17.3 +10.9 66 +18 +18 1026.4 1018.4
20 21.08 С 1 50 км н/о +14.7 +10.7 77 +15 +15 1026.9 1018.8
21 21.08 СЗ 2
{3}
40 км н/о +12.4 +10.3 87 +11 +11 1027.2 1019.0 0
22 21.08 штиль 0 45 км н/о +13.2 +11.1 87 +13 +13 1027.0 1018.9
23 21.08 штиль 0 23 км н/о +12.4 +10.8 90 +12 +12 1026.8 1018.7
00 22.08 ЮЗ 2
{3}
16 км н/о +11.6 +10.3 92 +11 +11 1026.8 1018.6 0
01 22.08 ЮЗ 1 14 км н/о +10.7 +9.9 95 +10 +10 1026.5 1018.3
02 22.08 З 1 12 км н/о +10.1 +9.3 95 +10 +10 1026.3 1018.1
03 22.08 штиль 0
{2}
10 км н/о +10.1 +9.6 97 +9 +9 1026.2 1018.0 0
04 22.08 Ю 1 16 км н/о +9.8 +9.2 96 +10 +10 1026.1 1017.9
05 22.08 ЮЗ 1 17 км н/о +9.3 +8.8 97 +8 +8 1026.1 1017.9
06 22.08 Ю 2
{3}
13 км н/о +10.4 +9.9 97 +9 +9 1026.6 1018.4 +8.8 +19.1 0
07 22.08 ЮВ 1 14 км н/о +13.6 +11.6 88 +14 +14 1026.8 1018.7
08 22.08 Ю 1 28 км н/о +17.8 +12.0 69 +19 +19 1026.9 1018.9
09 22.08 ЮВ 3
{4}
60 км н/о +20.6 +10.1 51 +23 +23 комфорт 1027.0 1019.1 0
10 22.08 В 1 19 км н/о +22.0 +8.8 43 +23 +23 комфорт 1027.0 1019.1
11 22.08 В 1 60 км н/о +23.1 +9.8 43 +25 +25 комфорт 1026.5 1018.6
12 22.08 В 2
{6}
19 км н/о +23.6 +8.8 39 +24 +24 комфорт 1026.2 1018.4 0
13 22.08 С 3 60 км н/о +23.0 +11.1 47 +25 +25 комфорт 1026.1 1018.2
14 22.08 СВ 2 55 км н/о +23.1 +11.8 49 +26 +26 жарко 1025.8 1018.0
15 22.08 С 4
{8}
55 км н/о +22.7 +12.9 54 +26 +26 жарко 1025.8 1017.9 0
16 22.08 С 3 45 км н/о +22.0 +11.7 52 +24 +24 комфорт 1025.7 1017.8
17 22.08 СВ 2 60 км н/о +21.0 +11.6 55 +24 +24 комфорт 1025.6 1017.7
18 22.08 С 4
{7}
60 км н/о +20.0 +11.7 59 +22 +22 комфорт 1025.7 1017.8 +10.5 +24.4 0
19 22.08 С 2 45 км н/о +18.1 +12.5 70 +19 +19 1026.1 1018.1
20 22.08 С 1 35 км н/о +16.7 +12.6 77 +18 +18 1026.7 1018.7
21 22.08 СЗ 2
{3}
45 км н/о +13.6 +11.3 86 +13 +13 1026.9 1018.8 0
22 22.08 штиль 0 30 км н/о +14.3 +12.0 86 +14 +14 1026.9 1018.8
23 22.08 В 1 30 км н/о +14.3 +12.3 88 +15 +15 1026.9 1018.8
00 23.08 ЮВ 1
{2}
14 км н/о +13.1 +11.0 87 +13 +13 1026.6 1018.5 0
01 23.08 ЮВ 1 23 км н/о +12.8 +11.4 91 +13 +13 1026.4 1018.3
02 23.08 Ю 1 18 км н/о +11.4 +10.6 95 +12 +12 1026.1 1017.9
03 23.08 ЮВ 2
{2}
24 км н/о +11.4 +10.6 95 +10 +10 1025.9 1017.7 0
04 23.08 Ю 2
{3}
19 км н/о +10.6 +9.5 93 +9 +9 1025.7 1017.5
05 23.08 ЮВ 1 15 км н/о +10.2 +9.6 96 +10 +10 1025.4 1017.2 0.2
06 23.08 В 1
{2}
19 км н/о +11.4 +10.8 96 +12 +12 1025.5 1017.3 +10.0 +19.9 0.2 0
07 23.08 ЮВ 1 18 км н/о +14.2 +12.8 91 +14 +14 1025.4 1017.3
08 23.08 В 1 30 км н/о +17.5 +12.2 71 +19 +19 1025.3 1017.3
09 23.08 ЮВ 3
{5}
50 км н/о +19.8 +11.3 58 +21 +21 комфорт 1025.1 1017.2 0
10 23.08 В 2 55 км н/о +22.3 +11.1 49 +24 +24 комфорт 1024.7 1016.8
11 23.08 В 2 60 км н/о +24.2 +11.8 46 +26 +26 жарко 1024.1 1016.3
12 23.08 В 3
{7}
60 км н/о +25.8 +11.9 42 +27 +27 жарко 1023.5 1015.7 0
13 23.08 СВ 3 60 км н/о +25.6 +12.4 44 +27 +27 жарко 1023.0 1015.2
14 23.08 СВ 3 55 км н/о +25.6 +13.1 46 +28 +28 жарко 1022.6 1014.8
15 23.08 СВ 5
{9}
45 км н/о +25.3 +13.5 48 +27 +27 жарко 1022.2 1014.4 0
16 23.08 СВ 3 40 км н/о +24.6 +13.5 50 +27 +27 жарко 1021.9 1014.1
17 23.08 СВ 3 40 км н/о +23.0 +12.3 51 +26 +26 жарко 1021.5 1013.7
18 23.08 СВ 5
{9}
50 км н/о +21.8 +11.8 53 +24 +24 комфорт 1021.1 1013.3 +11.4 +26.9 0
19 23.08 СВ 2 50 км н/о +20.2 +11.7 58 +23 +23 комфорт 1021.1 1013.2
20 23.08 В 1 50 км н/о +18.9 +11.7 63 +21 +21 комфорт 1021.2 1013.3
21 23.08 С 1
{4}
50 км н/о +18.0 +12.7 71 +19 +19 1021.1 1013.2 0
22 23.08 СЗ 1 40 км н/о +15.3 +11.7 79 +17 +17 1020.8 1012.8
23 23.08 СЗ 1 40 км н/о +13.3 +11.4 88 +14 +14 1020.8 1012.7
00 24.08 СЗ 1
{2}
35 км н/о +13.9 +11.6 86 +14 +14 1020.6 1012.5 0
01 24.08 З 1 30 км н/о +12.2 +10.6 90 +13 +13 1020.4 1012.3
02 24.08 Ю 1 26 км н/о +13.8 +12.0 89 +15 +15 1020.1 1012.0
03 24.08 Ю 3
{3}
27 км н/о +10.9 +10.0 94 +9 +9 1019.7 1011.6 0
04 24.08 Ю 1 26 км н/о +10.1 +9.5 96 +9 +9 1019.4 1011.2
05 24.08 Ю 1 30 км н/о +11.1 +10.2 94 +11 +11 1019.3 1011.2
06 24.08 ЮВ 1
{2}
27 км н/о +12.9 +11.8 93 +13 +13 1019.1 1011.0 +9.9 +21.7 0
07 24.08 ЮВ 1 24 км н/о +16.1 +12.8 81 +17 +17 1019.2 1011.2
08 24.08 ЮВ 2 30 км н/о +20.6 +13.3 63 +24 +24 комфорт 1019.0 1011.1
09 24.08 ЮВ 3
{5}
19 км н/о +23.2 +13.9 56 +27 +27 душно 1018.8 1011.0 0
10 24.08 ЮВ 2 50 км н/о +26.4 +13.8 46 +29 +29 жарко 1018.5 1010.8
11 24.08 В 2 45 км н/о +28.6 +10.7 33 +29 +29 жарко 1018.1 1010.5
12 24.08 ЮВ 3
{8}
60 км н/о +30.1 +9.6 28 +30 +30 жарко 1017.5 1009.9 0
13 24.08 Ю 1 60 км н/о +31.3 +8.9 25 +30 +30 жарко 1017.1 1009.5
14 24.08 В 2 60 км н/о +31.6 +9.2 25 +31 +31 жарко 1016.7 1009.1
15 24.08 СВ 3
{7}
60 км н/о +31.8 +11.6 29 +32 +32 жарко 1016.4 1008.8 0
16 24.08 СВ 2 19 км н/о +28.9 +14.3 41 +31 +31 жарко 1016.4 1008.8
17 24.08 СВ 2 50 км н/о +27.5 +13.4 42 +29 +29 жарко 1016.2 1008.5
18 24.08 СВ 3
{6}
50 км 9/0
[]
+26.0 +14.1 48 +28 +29 жарко 1016.2 1008.5 +13.0 +32.4 0
19 24.08 штиль 0 35 км 9/9
[]
+23.9 +14.0 54 +26 +26 жарко 1016.3 1008.6
20 24.08 В 1 35 км н/о +21.7 +13.3 59 +24 +24 комфорт 1016.4 1008.6
21 24.08 ЮВ 2
{3}
50 км н/о +21.1 +13.5 62 +24 +24 комфорт 1016.4 1008.6 0
22 24.08 ЮВ 2 30 км н/о +19.1 +12.8 67 +21 +21 комфорт 1016.6 1008.7
23 24.08 ЮВ 2 30 км н/о +17.6 +12.7 73 +18 +18 1016.7 1008.8
00 25.08 Ю 3
{4}
50 км н/о +17.5 +12.2 71 +17 +17 1016.6 1008.7 0
01 25.08 ЮВ 1 45 км н/о +15.9 +12.3 79 +17 +17 1016.6 1008.6
02 25.08 ЮВ 1 35 км н/о +16.2 +11.8 75 +17 +17 1016.6 1008.6
03 25.08 З 1
{2}
50 км н/о +15.4 +11.6 78 +16 +16 1016.7 1008.7 0
04 25.08 ЮВ 1 35 км н/о +15.1 +11.3 78 +16 +16 1016.8 1008.8
05 25.08 ЮВ 1 30 км н/о +14.5 +12.0 85 +16 +16 1016.9 1008.9
06 25.08 ЮВ 2
{3}
16 км н/о +15.4 +13.2 87 +15 +15 1017.0 1009.0 +14.2 +26.0 0
07 25.08 Ю 1 45 км н/о +19.2 +12.2 64 +21 +21 комфорт 1017.2 1009.3
08 25.08 СЗ 1 45 км н/о +21.8 +12.6 56 +24 +24 комфорт 1017.7 1009.9
09 25.08 СВ 1
{3}
18 км н/о +25.3 +12.2 44 +27 +27 жарко 1017.8 1010.1 0
10 25.08 СЗ 2 60 км н/о +26.8 +13.2 43 +29 +29 жарко 1017.9 1010.2
11 25.08 СЗ 2 19 км н/о +28.2 +14.8 44 +31 +31 душно 1017.7 1010.1
12 25.08 СЗ 4
{8}
19 км н/о +26.5 +17.6 58 +31 +31 душно 1018.2 1010.5 0

 

Местоположение метеостанции Кан (Франция): широта 49.18 долгота -0.45 высота над уровнем моря 67 м.

В архиве по умолчанию представлена погода в Кане за последнюю неделю. Архивные данные за месяц целиком и за предыдущие месяцы, начиная с января 2011 года, Вы можете получить, выбрав интересующий диапазон дат из раскрывающегося списка и нажав кнопку "Ввод!".


*Определитесь, кто Вы:
робот инопланетянин человек

Внимание! Время в таблицах - всемирное. Для получения местного времени необходимо прибавить поправку, которая равна 1 ч.

Смотрите также архив погоды в соседних городах и на ближайших метеорологических станциях:

Погода в Порт-ан-Бессене (Франция) (30 км)
Погода в Довиле (Франция) (50 км)
Погода в Гавре (Франция) (52 км)
Погода в Гавр аэропорту (Франция) (55 км)
Погода в Барфлере (Франция) (83 км)
Погода в Мопертю-сюр-Мере (Франция) (91 км)
Погода в Вигите ду Аумет (Франция) (92 км)
Погода в Алансоне (Франция) (93 км)
Погода на Пуэнт-дю-Оке (Франция) (94 км)
Погода в Картере (Франция) (100 км)

Пояснения к столбцам:

Ветер - указаны скорость ветра в м/с - средняя за 10 мин, порывы в срок и между сроками (в фигурных скобках) и направление, откуда дует ветер: С - северный, СВ - северо-восточный, В - восточный, ЮВ - юго-восточный, Ю - южный, ЮЗ - юго-западный, З - западный, СЗ - северо-западный.
Видимость - горизонтальная дальность видимости в метрах или километрах. При видимости от 1 до 10 км при отсутствии осадков обычно наблюдается дымка, при ухудшении видимости до 1 км и менее - туман. В сухую погоду видимость может ухудшаться дымом, пылью или мглою.
Явления - указаны атмосферные явления, наблюдавшиеся в срок или в последний час перед сроком; фигурными скобками обозначены явления, наблюдавшиеся между сроками (за 1-3 часа до срока); квадратными скобками обозначены град или гололедные отложения с указанием их диаметра в мм.
Облачность - указаны через наклонную черту общая и нижняя облачность в баллах и высота нижней границы облаков в метрах; квадратными скобками обозначены формы облаков: Ci - перистые, Cs - перисто-слоистые, Cc - перисто-кучевые, Ac - высококучевые, As - высокослоистые, Sc - слоисто-кучевые, Ns - слоисто-дождевые, Cu - кучевые, Cb - кучево-дождевые. Подробнее классификацию облаков см. в Атласе облаков (PDF).
T - Температура воздуха - температура, измеренная на высоте 2 м над землей.
Td - Температура точки росы - температура, при понижении до которой содержащийся в воздухе водяной пар достигнет насыщения.
f - Относительная влажность воздуха - влажноcть воздуха, измеренная на высоте 2 м над землей.
Te - Эффективная температура - температура, которую ощущает одетый по сезону человек в тени. Характеристика душности погоды. При расчете учитывается влияние влажности воздуха и скорости ветра на теплоощущения человека.
Tes - Эффективная температура на солнце - температура, которую ощущает человек, с поправкой на солнечный нагрев. Характеристика знойности погоды. Зависит от высоты солнца над горизонтом, облачности и скорости ветра. Ночью, в пасмурную погоду, а также при ветре 12 м/с и более поправка равна нулю.
P - Атмосферное давление - приведенное к уровню моря атмосферное давление.
Po - Атмосферное давление - измеренное на уровне метеостанции атмосферное давление.
Tmin - Минимальная температура - минимум температуры воздуха на высоте 2 м над землей.
Tmax - Максимальная температура - максимум температуры воздуха на высоте 2 м над землей.
R - Количество осадков - Количество выпавших осадков за период времени, мм. При наведении курсора мыши на число - период времени, за который выпало указанное количество осадков.
R24 - Количество осадков - Количество выпавших осадков за 24 часа, мм.
S - Снежный покров - Высота снежного покрова, см. При наведении курсора мыши на число - состояние снежного покрова и степень покрытия местности в баллах.